Regional Weather Roundup
Issued by NWS

Home | Current Version | Previous Version | Graphics & Text | Print | Product List | Glossary On
Versions: 1 2 3 4 5 6 7 8 9 10 11 12 13 14 15 16 17 18 19 20 21 22 23 24 25 26 27 28 29 30 31 32 33 34 35 36 37 38 39 40 41 42 43 44 45 46 47 48 49 50
000
ASUS43 KBIS 300610
RWRND

NORTH DAKOTA REGIONAL WEATHER ROUNDUP
NATIONAL WEATHER SERVICE BISMARCK ND
100 AM CDT THU OCT 30 2014

NOTE: "FAIR" INDICATES FEW OR NO CLOUDS BELOW 12,000 FEET WITH NO
SIGNIFICANT WEATHER AND/OR OBSTRUCTIONS TO VISIBILITY.


NDZ001>003-009>011-017-300700-
NORTHWEST NORTH DAKOTA

CITY           SKY/WX    TMP DP  RH WIND       PRES   REMARKS
WILLISTON      CLEAR     37  32  82 NW10      30.08R
6HR MIN TEMP:  37; 6HR MAX TEMP:  46;

MINOT          CLEAR     32  29  88 NW10      30.01R
MINOT AFB      CLEAR     31  31  98 NW10      30.01R
$$

NDZ018>021-031>035-040>046-300700-
SOUTHWEST NORTH DAKOTA

CITY           SKY/WX    TMP DP  RH WIND       PRES   REMARKS
BISMARCK       CLEAR     39  39 100 W6        29.97S
6HR MIN TEMP:  39; 6HR MAX TEMP:  46; 6HR PCP:  0.03;

DICKINSON      CLEAR     38  33  82 NW10      30.02R
GARRISON         N/A     35  33  92 NW10      29.99R
6HR MIN TEMP:  34; 6HR MAX TEMP:  44;

HETTINGER ARPT CLEAR     38  33  82 NW10      30.04R
$$

NDZ004>008-012>016-024-026-027-054-300700-
NORTHEAST NORTH DAKOTA

CITY           SKY/WX    TMP DP  RH WIND       PRES   REMARKS
GRAND FORKS    CLOUDY    38  32  79 SE9       29.98S
GRND FRKS AFB  CLOUDY    38  34  87 S6        29.98S
DEVILS LAKE    CLEAR     34  25  69 E6        29.94R
$$

NDZ022-023-025-028>030-036>039-047>053-300700-
SOUTHEAST NORTH DAKOTA

CITY           SKY/WX    TMP DP  RH WIND       PRES   REMARKS
FARGO          CLOUDY    40  34  79 SE10      29.98F
6HR MIN TEMP:  40; 6HR MAX TEMP:  42;

JAMESTOWN      MOCLDY    40  38  93 SW5       29.94R
$$




USA.gov is the U.S. government's official web portal to all federal, state and local government web resources and services.